This demonstration page uses our WeatherBlox Daily Observations layout. Learn more.

Left ArrowRight Arrow

40.97296, -117.73568

Hourly Observations for March 23, 2016

Temp ( °F °C ) Dew Point ( °F °C ) Humidity (%) Winds ( mph kmh ) Pressure ( in mb ) Visibility ( mi km ) Precip ( " mm )
12:56 am 00:56 Clear 23 -5 21 -6.1 92 92 S 7 11 30.27 1025 10 16 0.00 0.00
1:56 am 01:56 Clear 21 -6.1 19 -7.2 92 92 Calm 30.29 1026 10 16 0.00 0.00
2:56 am 02:56 Clear 17 -8.3 15 -9.4 92 92 Calm 30.31 1026 10 16 0.00 0.00
3:56 am 03:56 Clear 17 -8.3 14 -10 88 88 SW 3 6 30.32 1027 10 16 0.00 0.00
4:56 am 04:56 Clear 19 -7.2 16 -8.9 88 88 Calm 30.34 1028 10 16 0.00 0.00
5:56 am 05:56 Clear 16 -8.9 13 -10.6 88 88 SSE 3 6 30.35 1028 10 16 0.00 0.00
6:56 am 06:56 Sunny 15 -9.4 12 -11.1 88 88 SE 6 9 30.39 1029 10 16 0.00 0.00
7:56 am 07:56 Sunny 23 -5 21 -6.1 92 92 ESE 3 6 30.38 1029 10 16 0.00 0.00
8:56 am 08:56 Sunny 32 0 25 -3.9 75 75 Calm 30.38 1029 10 16 0.00 0.00
9:56 am 09:56 Sunny 38 3.3 28 -2.2 68 68 VRB 3 6 30.37 1029 10 16 0.00 0.00
10:56 am 10:56 Sunny 44 6.7 27 -2.8 51 51 VRB 3 6 30.37 1029 10 16 0.00 0.00
11:56 am 11:56 Partly Cloudy 46 7.8 26 -3.3 46 46 SSW 6 9 30.37 1028 10 16 0.00 0.00
12:56 pm 12:56 Partly Cloudy 49 9.4 24 -4.4 38 38 SW 9 15 30.35 1028 10 16 0.00 0.00
1:56 pm 13:56 Sunny 51 10.6 22 -5.6 32 32 SSW 12 19 30.33 1027 10 16 0.00 0.00
2:56 pm 14:56 Sunny 51 10.6 19 -7.2 28 28 VRB 3 6 30.33 1027 10 16 0.00 0.00
3:56 pm 15:56 Sunny 51 10.6 20 -6.7 29 29 VRB 3 6 30.32 1027 10 16 0.00 0.00
4:56 pm 16:56 Sunny 53 11.7 19 -7.2 26 26 SSW 7 11 30.29 1026 10 16 0.00 0.00
5:56 pm 17:56 Sunny 52 11.1 20 -6.7 28 28 WSW 8 13 30.30 1026 10 16 0.00 0.00
6:56 pm 18:56 Sunny 47 8.3 22 -5.6 37 37 S 6 9 30.32 1027 10 16 0.00 0.00
7:56 pm 19:56 Clear 41 5 22 -5.6 47 47 SSE 5 7 30.32 1027 10 16 0.00 0.00
8:56 pm 20:56 Clear 35 1.7 24 -4.4 64 64 SSE 9 15 30.31 1026 10 16 0.00 0.00
9:56 pm 21:56 Partly Cloudy 39 3.9 25 -3.9 57 57 S 7 11 30.28 1026 10 16 0.00 0.00
10:56 pm 22:56 Cloudy 42 5.6 23 -5 47 47 S 13 20 30.25 1025 10 16 0.00 0.00
11:56 pm 23:56 Cloudy 39 3.9 24 -4.4 55 55 SSE 13 20 30.24 1024 10 16 0.00 0.00

Powered by AerisWeather